Location: Newark
(29.9790°N, 31.1340°E)
Time: 19:11:39
(UTC+00:00)

S-56A Canister/Altair - All Passes

Search period start: 27 January 2020 00:00
Search period end: 06 February 2020 00:00
Orbit: 634 x 2498 km, 38.9° (Epoch: 27 January)

Date Brightness Start Highest point End Pass type
(mag) Time Alt. Az. Time Alt. Az. Time Alt. Az.
27 Jan - 00:25:29 10° W 00:29:15 24° SW 00:33:43 10° SSE night (unlit)
27 Jan - 13:28:29 10° S 13:34:28 16° SE 13:39:27 10° ESE daylight
27 Jan - 15:29:52 10° SW 15:39:37 52° SSE 15:46:05 10° ENE daylight
27 Jan - 17:36:22 10° W 17:44:04 56° NNW 17:49:21 10° ENE visible
27 Jan - 19:43:44 10° WNW 19:48:42 30° N 19:52:46 10° ENE visible
27 Jan - 21:48:38 10° WNW 21:53:09 53° NNE 21:57:36 10° E night (unlit)
27 Jan - 23:52:48 10° W 23:56:40 28° SW 00:01:09 10° SSE night (unlit)
28 Jan - 12:56:05 10° SSE 13:01:22 14° SE 13:05:56 10° ESE daylight
28 Jan - 14:56:27 10° SW 15:06:41 47° SSE 15:13:33 10° ENE daylight
28 Jan - 17:02:45 10° WSW 17:11:18 64° NNW 17:16:59 10° ENE visible
28 Jan - 19:10:28 10° WNW 19:15:58 32° N 19:20:16 10° ENE visible
28 Jan - 21:15:55 10° NW 21:20:35 47° NNE 21:24:52 10° E night (unlit)
28 Jan - 23:20:07 10° W 23:24:08 34° SW 23:28:37 10° SSE night (unlit)
29 Jan - 12:24:04 10° SSE 12:28:13 12° SE 12:31:57 10° ESE daylight
29 Jan - 14:23:03 10° SSW 14:33:41 43° SE 14:40:56 10° ENE daylight
29 Jan - 16:29:05 10° WSW 16:38:29 72° NNW 16:44:37 10° ENE visible
29 Jan - 18:37:04 10° WNW 18:43:13 34° N 18:47:49 10° ENE visible
29 Jan - 20:43:06 10° NW 20:47:58 42° NNE 20:52:11 10° E night (unlit)
29 Jan - 22:47:24 10° WNW 22:51:37 42° SSW 22:56:04 10° SE night (unlit)
30 Jan - 11:53:11 10° SSE 11:55:01 10° SE 11:56:46 10° SE daylight
30 Jan - 13:49:41 10° SSW 14:00:36 39° SE 14:08:15 10° E daylight
30 Jan - 15:55:23 10° WSW 16:05:38 81° NNW 16:12:12 10° ENE visible
30 Jan - 18:03:32 10° WNW 18:10:26 38° N 18:15:23 10° ENE visible
30 Jan - 20:10:10 10° WNW 20:15:19 39° NNE 20:19:34 10° E night (unlit)
30 Jan - 22:14:41 10° WNW 22:19:08 52° SSW 22:23:33 10° SE night (unlit)
31 Jan - 13:16:22 10° SSW 13:27:29 36° SE 13:35:30 10° E daylight
31 Jan - 15:21:39 10° WSW 15:32:42 89° NNW 15:39:46 10° ENE daylight
31 Jan - 17:29:53 10° W 17:37:37 42° NNW 17:42:59 10° ENE visible
31 Jan - 19:37:05 10° WNW 19:42:38 38° N 19:46:59 10° ENE visible
31 Jan - 21:41:54 10° WNW 21:46:39 65° SSW 21:51:02 10° SE night (unlit)
01 Feb - 12:43:07 10° SSW 12:54:17 33° SE 13:02:37 10° E daylight
01 Feb - 14:47:54 10° WSW 14:59:42 84° SSE 15:07:17 10° ENE daylight
01 Feb - 16:56:08 10° W 17:04:45 46° NNW 17:10:34 10° ENE visible
01 Feb - 19:03:52 10° WNW 19:09:54 37° N 19:14:27 10° ENE visible
01 Feb - 21:09:04 10° WNW 21:14:08 79° SSW 21:18:33 10° ESE night (unlit)
01 Feb - 23:16:18 10° SW 23:17:14 11° SW 23:18:11 10° SSW night (unlit)
02 Feb - 12:09:58 10° SSW 12:21:03 30° SE 12:29:37 10° E daylight
02 Feb - 14:14:10 10° SW 14:26:37 77° SSE 14:34:46 10° ENE daylight
02 Feb - 16:22:17 10° W 16:31:50 51° NNW 16:38:10 10° ENE visible
02 Feb - 18:30:30 10° WNW 18:37:07 38° N 18:41:56 10° ENE visible
02 Feb - 20:36:10 10° WNW 20:41:37 86° NNE 20:46:04 10° ESE night (unlit)
02 Feb - 22:42:23 10° WSW 22:44:42 14° SW 22:46:59 10° S night (unlit)
03 Feb - 11:36:56 10° S 11:47:46 27° SE 11:56:28 10° E daylight
03 Feb - 13:40:27 10° SW 13:53:28 70° SSE 14:02:10 10° ENE daylight
03 Feb - 15:48:22 10° W 15:58:51 56° NNW 16:05:44 10° ENE visible
03 Feb - 17:57:00 10° WNW 18:04:18 39° N 18:09:26 10° ENE visible
03 Feb - 20:03:09 10° WNW 20:09:02 74° NNE 20:13:35 10° ESE visible
03 Feb - 22:09:03 10° W 22:12:11 18° SW 22:15:12 10° S night (unlit)
04 Feb - 11:04:03 10° S 11:14:28 24° SE 11:23:09 10° E daylight
04 Feb - 13:06:47 10° SW 13:20:14 64° SSE 13:29:31 10° ENE daylight
04 Feb - 15:14:24 10° W 15:25:49 62° NNW 15:33:16 10° ENE daylight
04 Feb - 17:23:20 10° WNW 17:31:25 41° N 17:36:58 10° ENE visible
04 Feb - 19:30:03 10° WNW 19:36:24 65° NNE 19:41:06 10° ESE visible
04 Feb - 21:35:50 10° W 21:39:42 23° SW 21:43:15 10° SSE night (unlit)
05 Feb - 10:31:23 10° S 10:41:07 21° SE 10:49:35 10° E daylight
05 Feb - 12:33:12 10° SW 12:46:57 59° SE 12:56:46 10° ENE daylight
05 Feb - 14:40:26 10° WSW 14:52:42 68° NNW 15:00:45 10° ENE daylight
05 Feb - 16:49:34 10° WNW 16:58:28 43° N 17:04:28 10° ENE visible
05 Feb - 18:56:49 10° WNW 19:03:43 59° NNE 19:08:38 10° E visible
05 Feb - 21:02:39 10° W 21:07:15 30° SW 21:11:10 10° SSE night (unlit)
